Time,TemperatureF,DewpointF,PressureIn,WindDirection,WindDirectionDegrees,WindSpeedMPH,WindSpeedGustMPH,Humidity,HourlyPrecipIn,Conditions,Clouds,dailyrainin,SolarRadiationWatts/m^2,SoftwareType,DateUTC
2013-03-09 00:00:00,29.0,-99.9,-100.00,NW,312,9.0,13.0,-999,-99.99,,,0.00,0.000000,,2013-03-09 07:00:00,
2013-03-09 00:52:00,29.0,-99.9,-100.00,NW,312,9.0,13.0,-999,-99.99,,,0.00,0.000000,,2013-03-09 07:52:00,
2013-03-09 01:00:00,28.0,-99.9,-100.00,NNW,336,6.0,11.0,-999,-99.99,,,-99.99,0.000000,,2013-03-09 08:00:00,
2013-03-09 01:52:00,28.0,-99.9,-100.00,NNW,336,6.0,11.0,-999,-99.99,,,-99.99,0.000000,,2013-03-09 08:52:00,
2013-03-09 02:00:00,27.0,-99.9,-100.00,NNW,331,4.0,8.0,-999,-99.99,,,0.00,0.000000,,2013-03-09 09:00:00,
2013-03-09 02:52:00,27.0,-99.9,-100.00,NNW,331,4.0,8.0,-999,-99.99,,,0.00,0.000000,,2013-03-09 09:52:00,
2013-03-09 03:00:00,23.0,-99.9,-100.00,NNW,337,4.0,8.0,-999,-99.99,,,0.00,0.000000,,2013-03-09 10:00:00,
2013-03-09 03:52:00,23.0,-99.9,-100.00,NNW,337,4.0,8.0,-999,-99.99,,,0.00,0.000000,,2013-03-09 10:52:00,
2013-03-09 04:00:00,20.0,-99.9,-100.00,NNE,12,2.0,6.0,-999,-99.99,,,0.00,0.000000,,2013-03-09 11:00:00,
2013-03-09 04:52:00,20.0,-99.9,-100.00,NNE,12,2.0,6.0,-999,-99.99,,,0.00,0.000000,,2013-03-09 11:52:00,
2013-03-09 05:00:00,18.0,-99.9,-100.00,South,179,1.0,4.0,-999,-99.99,,,-99.99,0.000000,,2013-03-09 12:00:00,
2013-03-09 05:53:00,18.0,-99.9,-100.00,South,179,1.0,4.0,-999,-99.99,,,-99.99,0.000000,,2013-03-09 12:53:00,
2013-03-09 06:00:00,15.0,-99.9,-100.00,NE,43,1.0,4.0,-999,-99.99,,,-99.99,0.000000,,2013-03-09 13:00:00,
2013-03-09 06:52:00,15.0,-99.9,-100.00,NE,43,1.0,4.0,-999,-99.99,,,-99.99,0.000000,,2013-03-09 13:52:00,
2013-03-09 07:00:00,12.0,-99.9,-100.00,SE,127,1.0,4.0,-999,-99.99,,,-99.99,0.000000,,2013-03-09 14:00:00,
2013-03-09 07:52:00,12.0,-99.9,-100.00,SE,127,1.0,4.0,-999,-99.99,,,-99.99,0.000000,,2013-03-09 14:52:00,
2013-03-09 08:00:00,16.0,-99.9,-100.00,ESE,122,1.0,3.0,-999,-99.99,,,-99.99,0.700000,,2013-03-09 15:00:00,
2013-03-09 08:52:00,16.0,-99.9,-100.00,ESE,122,1.0,3.0,-999,-99.99,,,-99.99,0.700000,,2013-03-09 15:52:00,
2013-03-09 09:00:00,27.0,-99.9,-100.00,NW,320,1.0,5.0,-999,-99.99,,,-99.99,3.500000,,2013-03-09 16:00:00,
2013-03-09 09:52:00,27.0,-99.9,-100.00,NW,320,1.0,5.0,-999,-99.99,,,-99.99,3.500000,,2013-03-09 16:52:00,
2013-03-09 10:00:00,36.0,-99.9,-100.00,NNW,327,4.0,10.0,-999,-99.99,,,0.00,8.900000,,2013-03-09 17:00:00,
2013-03-09 10:52:00,36.0,-99.9,-100.00,NNW,327,4.0,10.0,-999,-99.99,,,0.00,8.900000,,2013-03-09 17:52:00,
2013-03-09 11:00:00,39.0,-99.9,-100.00,WNW,301,3.0,5.0,-999,-99.99,,,0.00,14.700000,,2013-03-09 18:00:00,
2013-03-09 11:52:00,39.0,-99.9,-100.00,WNW,301,3.0,5.0,-999,-99.99,,,0.00,14.700000,,2013-03-09 18:52:00,
2013-03-09 12:00:00,38.0,-99.9,-100.00,NW,317,6.0,12.0,-999,-99.99,,,-99.99,17.500000,,2013-03-09 19:00:00,
2013-03-09 12:52:00,38.0,-99.9,-100.00,NW,317,6.0,12.0,-999,-99.99,,,-99.99,17.500000,,2013-03-09 19:52:00,
2013-03-09 13:00:00,39.0,-99.9,-100.00,NW,326,13.0,17.0,-999,-99.99,,,0.00,18.900000,,2013-03-09 20:00:00,
2013-03-09 13:53:00,39.0,-99.9,-100.00,NW,326,13.0,17.0,-999,-99.99,,,0.00,18.900000,,2013-03-09 20:53:00,
2013-03-09 14:00:00,40.0,-99.9,-100.00,NW,309,10.0,13.0,-999,-99.99,,,0.00,18.799999,,2013-03-09 21:00:00,
2013-03-09 14:52:00,40.0,-99.9,-100.00,NW,309,10.0,13.0,-999,-99.99,,,0.00,18.799999,,2013-03-09 21:52:00,
2013-03-09 15:00:00,40.0,-99.9,-100.00,WNW,295,11.0,16.0,-999,-99.99,,,0.00,17.100000,,2013-03-09 22:00:00,
2013-03-09 15:52:00,40.0,-99.9,-100.00,WNW,295,11.0,16.0,-999,-99.99,,,0.00,17.100000,,2013-03-09 22:52:00,
2013-03-09 16:00:00,40.0,-99.9,-100.00,WNW,296,11.0,17.0,-999,-99.99,,,0.00,13.900000,,2013-03-09 23:00:00,
2013-03-09 16:52:00,40.0,-99.9,-100.00,WNW,296,11.0,17.0,-999,-99.99,,,0.00,13.900000,,2013-03-09 23:52:00,
2013-03-09 17:00:00,39.0,-99.9,-100.00,WNW,302,10.0,15.0,-999,-99.99,,,0.00,9.800000,,2013-03-10 00:00:00,
2013-03-09 17:52:00,39.0,-99.9,-100.00,WNW,302,10.0,15.0,-999,-99.99,,,0.00,9.800000,,2013-03-10 00:52:00,
2013-03-09 18:00:00,38.0,-99.9,-100.00,NW,311,9.0,12.0,-999,-99.99,,,-99.99,5.300000,,2013-03-10 01:00:00,
2013-03-09 18:52:00,38.0,-99.9,-100.00,NW,311,9.0,12.0,-999,-99.99,,,-99.99,5.300000,,2013-03-10 01:52:00,
2013-03-09 19:00:00,33.0,-99.9,-100.00,NW,306,8.0,12.0,-999,-99.99,,,-99.99,0.700000,,2013-03-10 02:00:00,
2013-03-09 19:52:00,33.0,-99.9,-100.00,NW,306,8.0,12.0,-999,-99.99,,,-99.99,0.700000,,2013-03-10 02:52:00,
2013-03-09 20:00:00,30.0,-99.9,-100.00,NW,310,5.0,9.0,-999,-99.99,,,0.00,0.000000,,2013-03-10 03:00:00,
2013-03-09 20:52:00,30.0,-99.9,-100.00,NW,310,5.0,9.0,-999,-99.99,,,0.00,0.000000,,2013-03-10 03:52:00,
2013-03-09 21:00:00,28.0,-99.9,-100.00,NNW,334,2.0,5.0,-999,-99.99,,,-99.99,0.000000,,2013-03-10 04:00:00,
2013-03-09 21:52:00,28.0,-99.9,-100.00,NNW,334,2.0,5.0,-999,-99.99,,,-99.99,0.000000,,2013-03-10 04:52:00,
2013-03-09 22:00:00,28.0,-99.9,-100.00,NW,321,2.0,6.0,-999,-99.99,,,0.00,0.000000,,2013-03-10 05:00:00,
2013-03-09 22:52:00,28.0,-99.9,-100.00,NW,321,2.0,6.0,-999,-99.99,,,0.00,0.000000,,2013-03-10 05:52:00,
2013-03-09 23:00:00,27.0,-99.9,-100.00,SSW,198,3.0,7.0,-999,-99.99,,,0.00,0.000000,,2013-03-10 06:00:00,
2013-03-09 23:52:00,27.0,-99.9,-100.00,SSW,198,3.0,7.0,-999,-99.99,,,0.00,0.000000,,2013-03-10 06:52:00,